Theta_e
325 325 324 325 324 323 323 323 323 323 323 322 322 322 322 322 322 322 322 321 320 320 321 322 323 325 321 314 315 329 355 348 328 319 319 325 325 325 317 322 325 322 326 329 330 329 331
328 327 325 324 323 323 323 323 322 322 322 322 321 321 321 322 321 322 321 321 320 320 320 322 324 326 319 308 320 328 333 327 318 316 318 324 327 329 322 322 324 326 325 325 324 327 330
327 327 327 326 326 325 324 323 323 321 321 321 321 321 321 321 321 321 320 319 319 320 321 322 324 325 314 311 323 320 322 317 321 315 319 324 329 325 322 319 330 325 320 324 325 324 324
327 326 326 326 326 325 324 323 323 322 322 321 321 320 320 320 320 320 319 318 319 321 322 325 326 323 310 323 323 321 321 316 318 320 318 323 328 324 318 322 323 322 319 316 324 325 328
327 327 326 326 325 325 324 323 323 322 321 321 320 320 320 320 320 319 318 318 320 323 327 326 320 317 312 326 316 318 318 314 316 317 317 324 320 316 318 314 312 317 311 313 316 326 325
328 327 326 326 325 324 324 323 323 322 321 320 320 319 320 320 319 318 317 318 321 322 326 329 324 312 319 315 316 318 317 316 313 313 315 313 313 309 310 308 302 310 311 313 313 319 323
327 327 326 326 325 324 324 323 323 322 321 320 320 320 319 319 318 317 314 314 316 314 318 314 313 314 315 321 317 313 314 313 312 307 302 309 305 303 308 311 315 317 314 313 317 321 319
327 327 326 325 324 324 323 323 323 322 322 321 320 320 319 319 318 317 313 312 320 318 309 320 321 321 320 317 310 313 313 309 307 302 304 303 303 310 314 315 313 317 314 314 319 321 317
326 326 325 325 324 323 322 321 322 321 320 320 320 319 318 317 317 315 313 315 322 322 308 313 317 321 317 313 311 312 313 310 306 303 303 300 305 314 312 310 311 308 313 313 313 316 318
326 325 325 324 324 323 322 321 321 320 320 319 319 319 317 315 315 316 313 320 322 321 303 308 310 316 319 315 309 318 315 310 306 303 305 303 309 310 309 308 309 301 314 318 317 310 304
326 325 325 324 324 323 322 321 320 320 319 319 319 318 316 315 315 314 316 318 320 316 294 314 312 321 316 310 309 311 316 310 304 305 303 302 305 305 305 307 310 306 313 315 316 310 309
323 325 325 325 324 323 322 321 320 319 319 318 318 317 316 320 316 317 321 322 315 301 296 308 312 309 308 310 311 312 311 310 311 306 305 305 309 305 304 309 308 311 310 308 307 304 297
321 322 322 323 323 323 321 320 320 319 318 317 315 314 314 320 315 322 321 313 300 297 313 307 306 308 306 304 308 308 305 301 299 296 295 302 303 306 308 301 307 307 301 294 294 295 295
321 321 321 321 321 322 321 321 320 318 317 315 312 312 318 320 321 319 316 306 298 309 308 311 310 309 304 306 306 306 303 299 303 300 296 295 293 302 307 302 300 301 299 294 291 293 297
319 320 320 320 320 320 321 321 319 318 316 314 312 322 323 325 324 322 310 299 303 310 314 311 307 303 302 307 305 304 302 300 303 302 295 295 297 305 307 308 305 301 298 303 295 296 296
318 319 320 320 319 319 319 320 319 318 316 314 313 318 321 326 326 317 306 300 307 313 314 314 303 305 301 304 304 302 303 306 305 307 305 301 296 304 306 307 306 302 305 297 296 291 290
319 318 318 319 318 318 319 319 319 318 315 314 315 317 325 326 322 310 303 305 310 315 316 312 309 306 305 304 304 302 304 308 310 309 308 309 299 300 304 300 300 299 297 300 298 296 293
318 318 317 317 318 318 319 318 319 316 313 316 320 311 326 325 309 308 303 308 308 313 316 313 312 311 307 308 305 304 304 308 312 310 304 303 297 294 300 306 307 302 301 300 296 296 296
317 317 318 318 317 318 319 318 318 317 315 315 314 316 326 322 305 305 308 308 310 310 311 312 310 312 311 306 302 306 308 311 311 307 304 305 297 293 297 298 300 298 302 300 299 299 298
315 316 316 316 318 317 318 318 320 319 317 315 315 310 317 319 317 311 308 308 308 314 313 315 313 312 310 307 307 307 308 310 310 310 326 311 299 298 296 301 301 298 303 304 301 296 300
315 315 315 316 317 318 318 318 320 319 318 315 316 312 319 309 313 313 312 310 309 309 314 315 313 312 311 308 306 309 310 307 309 316 306 304 300 307 304 307 309 307 305 306 300 301 302
315 315 315 315 316 317 318 317 318 317 317 313 311 314 318 314 313 314 312 308 309 312 312 311 311 314 313 310 313 310 306 302 302 305 302 304 303 304 303 309 310 308 306 306 305 310 315
315 315 315 314 315 317 318 318 318 317 317 315 321 322 318 308 311 312 313 311 311 313 317 315 314 313 315 316 318 319 314 307 307 305 303 302 304 303 299 307 308 300 306 309 307 315 316
315 315 314 314 314 316 318 318 319 318 316 316 316 316 315 307 310 312 315 317 316 313 314 317 316 318 321 324 323 318 316 309 308 305 307 302 301 304 304 302 296 307 316 317 316 318 317
315 315 314 314 313 314 316 318 318 318 317 315 317 314 315 310 312 312 314 315 316 318 316 319 322 324 325 319 310 308 307 308 309 309 306 306 303 300 303 300 307 311 313 313 312 312 321
315 315 315 314 313 314 316 317 318 318 317 314 315 318 314 312 310 316 311 316 312 313 316 319 324 324 320 315 310 308 303 307 307 308 313 307 306 306 304 300 300 309 317 322 317 309 321
315 315 315 314 313 313 315 317 317 318 316 315 315 319 317 313 317 316 311 312 317 317 315 318 320 321 318 311 307 305 305 316 308 309 306 306 308 304 307 305 307 315 320 322 308 312 324
315 315 315 314 313 313 315 316 317 318 318 315 313 319 314 315 317 319 319 314 315 316 311 316 316 316 314 309 308 307 311 313 310 313 310 308 307 306 310 306 302 322 320 316 322 324 329
314 315 315 314 314 313 314 316 317 318 318 318 311 318 320 316 317 323 323 321 319 319 316 317 318 319 320 313 312 316 312 314 309 305 314 307 310 309 311 311 317 322 320 324 326 326 327
Wind_Speed
12 12 13 12 14 15 17 18 18 18 19 20 20 20 21 20 22 22 22 21 21 20 19 18 17 17 9 3 11 5 8 6 4 4 5 8 12 16 9 9 6 14 16 15 27 21 24
11 10 12 13 13 15 16 17 18 18 19 20 21 21 21 21 22 22 23 21 20 21 19 17 15 16 3 5 5 11 9 7 7 7 5 8 10 16 13 10 13 20 31 25 13 10 3
10 11 11 10 11 11 10 11 12 17 19 20 21 22 22 22 24 24 24 23 23 21 18 14 11 6 5 17 6 3 9 6 7 7 10 9 14 11 11 9 13 15 25 14 3 10 7
10 10 11 11 11 11 11 12 12 13 15 16 18 22 23 23 25 25 26 26 24 20 15 11 5 4 9 8 14 15 13 9 10 10 10 11 12 12 7 9 9 8 10 9 4 13 8
10 10 11 12 12 12 13 13 14 14 15 16 18 22 22 22 25 26 27 29 24 17 10 5 4 3 10 4 6 10 9 8 10 8 8 12 9 5 11 6 3 3 6 12 7 19 5
9 10 10 11 12 12 13 13 14 14 15 20 21 23 23 22 23 25 30 28 11 8 5 8 8 4 7 9 7 10 8 8 8 6 6 6 4 1 7 4 5 9 7 8 9 6 10
7 8 9 10 10 11 12 13 14 15 20 21 23 24 23 24 24 19 17 6 2 0 5 10 8 7 11 9 5 8 10 9 9 5 7 9 4 5 12 13 15 21 12 10 3 10 12
8 7 8 9 10 11 13 14 13 14 16 17 19 21 23 26 26 22 5 4 9 7 8 14 21 20 19 8 4 5 3 7 7 8 7 6 10 10 13 17 17 13 15 9 6 8 20
9 9 9 9 10 10 12 16 14 15 16 18 19 20 23 28 33 4 6 10 12 13 6 12 17 14 13 5 6 8 8 8 9 8 9 9 9 16 17 15 14 8 16 7 12 19 12
10 10 10 10 11 11 11 12 12 14 16 18 19 20 20 28 5 8 7 12 14 6 4 9 9 16 16 7 9 15 12 10 6 11 11 9 15 15 15 11 8 7 6 22 10 7 4
11 11 11 11 11 12 12 13 16 14 15 18 19 19 16 8 9 6 9 17 12 3 4 8 9 10 9 10 4 9 10 8 11 9 6 12 10 10 10 8 9 10 10 16 7 9 2
11 11 11 12 12 12 12 13 15 16 17 19 20 20 16 5 5 14 15 16 8 2 8 6 5 8 9 11 15 8 8 6 7 8 8 9 9 5 5 10 7 6 8 4 4 6 1
11 11 12 12 12 12 12 13 15 16 19 20 22 25 12 6 7 5 11 5 2 5 4 11 7 11 9 8 12 11 8 7 7 2 6 9 10 10 6 2 7 1 4 4 5 3 6
11 11 11 12 12 12 12 13 14 16 19 21 23 30 8 10 9 12 2 2 5 11 11 7 11 12 8 10 10 9 8 7 11 8 6 8 6 10 4 5 6 7 8 7 8 5 1
10 10 11 11 12 12 13 14 15 16 18 19 24 6 7 8 13 6 2 4 6 6 11 2 9 9 9 12 9 8 10 9 10 11 8 5 9 5 7 6 8 11 5 12 2 5 4
13 12 10 11 11 12 13 14 15 16 19 15 10 6 9 10 13 5 3 6 9 9 19 14 6 10 10 12 11 10 11 12 14 15 10 10 7 7 11 7 8 8 7 3 3 1 1
13 12 11 10 11 12 12 14 14 15 18 25 4 6 5 12 10 2 6 7 11 20 24 7 9 5 10 9 10 8 10 11 19 14 12 4 2 9 8 6 8 3 5 5 4 6 6
14 14 12 12 11 11 12 13 14 13 18 9 5 5 6 8 4 4 9 8 7 23 25 7 8 14 6 7 10 9 10 10 14 12 9 7 3 2 11 11 10 6 10 7 7 7 4
13 13 14 15 11 11 11 12 13 10 10 6 5 7 8 6 5 9 13 19 20 23 23 7 7 14 11 5 4 8 1 7 8 5 8 4 4 4 7 7 3 4 8 7 5 3 1
13 13 13 13 14 11 10 11 12 8 6 4 5 5 5 7 8 13 14 13 17 20 16 13 12 11 13 6 8 4 10 4 4 7 2 5 2 7 6 7 6 4 9 8 4 3 3
15 14 14 13 14 11 9 10 10 7 7 3 4 6 1 5 6 11 14 16 19 19 9 9 9 11 13 2 4 3 6 8 5 6 2 4 2 1 2 5 5 5 6 10 5 3 5
14 14 14 13 13 13 9 8 10 8 6 3 5 6 7 13 16 16 12 18 20 23 9 10 8 15 8 6 3 3 3 4 6 4 4 2 3 2 6 12 16 16 9 10 6 16 16
14 14 14 13 13 13 10 9 8 8 4 4 5 6 6 7 9 11 11 14 19 17 12 12 14 11 9 10 1 19 12 9 9 9 7 4 5 4 4 9 14 5 5 7 4 9 15
14 14 13 13 14 13 11 10 8 7 3 4 4 8 6 8 9 12 24 21 18 16 8 8 8 7 3 9 10 6 9 7 10 8 9 5 3 6 6 4 2 4 14 17 19 12 20
15 14 14 13 14 13 12 10 9 8 5 4 6 5 5 8 9 16 20 19 22 21 7 7 9 4 1 2 2 4 7 7 7 9 9 9 4 1 6 4 4 10 9 14 4 3 14
16 15 14 14 14 13 13 12 9 8 5 3 6 7 4 6 7 9 19 16 15 5 3 4 7 8 7 2 2 2 1 4 3 2 4 2 4 7 3 7 4 14 26 16 4 3 12
17 16 14 14 14 13 13 13 11 9 6 4 5 9 3 6 11 9 9 15 13 12 4 3 4 1 4 2 3 3 5 2 2 4 5 3 3 2 3 8 4 3 10 12 9 4 5
17 16 15 14 13 13 13 13 11 10 8 5 5 7 5 5 15 16 20 17 17 10 5 11 8 2 1 1 1 2 3 3 7 4 3 4 5 5 5 6 2 5 8 9 3 4 9
16 16 16 14 13 13 13 12 10 8 9 7 5 7 6 7 11 22 24 23 19 20 7 6 6 3 1 2 2 2 1 3 5 3 6 5 2 3 4 5 5 5 5 4 4 4 6
Wind_Direction
5 5 6 5 3 360 358 356 355 353 351 348 347 345 344 342 339 334 331 327 322 318 316 318 323 327 343 252 250 154 164 182 196 254 208 260 284 290 302 326 26 77 92 13 333 348 26
348 347 352 356 357 357 355 352 351 349 348 344 343 342 340 338 336 332 329 322 317 313 311 312 317 318 248 261 223 160 190 155 235 207 255 243 263 282 300 347 43 115 115 142 242 5 82
345 348 349 348 345 346 345 342 345 347 345 342 340 338 337 334 333 331 327 320 315 309 305 304 306 296 262 241 278 282 190 229 208 219 251 253 265 291 315 328 125 69 91 77 158 170 229
344 343 342 342 340 340 339 339 337 338 337 336 336 335 334 331 330 329 323 315 308 301 298 292 266 263 253 259 239 266 280 265 254 203 242 276 285 299 303 299 36 108 91 107 238 208 357
341 342 343 344 344 342 339 336 335 336 338 336 335 335 330 324 327 326 321 311 302 288 275 247 212 226 263 263 211 242 214 237 258 259 218 254 273 295 327 292 71 324 88 355 244 193 155
339 341 344 345 343 342 341 340 337 333 338 342 338 334 328 323 320 323 322 299 278 311 218 195 261 283 263 235 214 217 219 245 252 225 276 249 275 239 303 311 239 113 99 200 255 178 255
329 338 341 340 339 339 337 335 332 336 341 339 337 333 327 320 314 322 338 344 91 96 255 212 201 242 286 226 265 181 196 216 248 188 216 251 215 194 248 257 264 159 177 167 244 246 263
314 323 325 330 332 333 335 333 326 324 326 326 324 323 321 319 315 316 288 262 283 305 297 230 242 256 267 279 163 235 203 192 220 222 209 258 228 234 247 259 268 163 143 209 200 329 326
319 316 318 321 322 324 331 334 324 324 322 320 322 321 321 321 315 294 222 250 289 299 290 278 233 222 246 186 260 244 194 205 223 223 210 204 235 222 236 255 268 259 165 153 198 191 249
313 312 311 311 313 315 315 324 316 318 320 319 319 321 326 331 334 338 275 266 243 309 294 265 184 220 224 228 242 242 197 183 241 209 226 215 234 244 235 239 246 282 271 176 190 97 239
317 313 311 307 305 307 316 317 317 314 316 317 318 320 325 316 297 295 307 329 323 339 292 167 153 185 182 186 267 222 194 212 230 229 177 245 239 244 253 246 208 241 285 176 146 131 143
329 325 320 315 312 311 310 312 314 314 315 316 315 315 330 317 217 249 288 291 304 278 244 146 130 156 182 206 243 199 147 184 248 256 281 243 278 279 233 277 288 288 331 328 327 162 78
325 324 322 320 315 310 308 309 312 314 315 315 313 308 302 276 239 314 332 297 268 231 237 154 163 160 193 201 237 147 156 185 210 185 283 296 259 277 198 235 314 328 353 336 331 344 220
317 322 320 318 318 317 313 311 312 315 316 316 315 308 255 205 231 258 299 315 252 279 253 179 153 162 196 190 239 164 165 198 234 225 197 212 269 239 206 186 218 226 184 169 221 225 269
308 311 318 320 321 322 320 315 314 316 317 322 313 297 266 224 214 250 276 233 255 262 321 105 132 140 215 201 196 160 185 205 209 227 218 228 251 223 178 157 179 265 232 226 261 294 41
325 315 309 314 320 322 320 319 316 318 318 327 321 286 258 225 153 189 218 243 262 275 298 313 151 165 192 210 205 177 180 203 226 216 209 259 308 256 191 144 218 175 244 330 334 280 299
323 324 318 309 316 319 322 321 319 321 320 315 269 280 250 157 161 192 227 238 288 279 292 293 336 314 212 194 183 221 204 216 208 231 209 226 164 290 100 164 199 272 291 273 159 142 142
332 332 325 316 310 314 318 323 321 326 328 333 295 271 218 156 183 214 235 262 262 286 295 302 311 296 241 227 183 208 236 213 178 204 153 211 206 335 202 207 184 201 213 215 124 277 184
319 326 326 323 310 304 312 321 318 326 5 326 282 279 275 186 230 240 259 256 251 271 277 274 265 279 285 183 154 228 164 85 134 161 156 175 282 331 316 47 226 192 263 230 226 106 164
313 313 316 323 320 313 312 319 310 314 339 320 277 277 232 214 235 262 277 287 281 262 261 283 271 273 283 222 191 206 126 106 104 108 75 97 272 154 177 232 236 230 256 257 215 90 256
306 305 311 314 320 316 308 321 326 320 329 303 244 258 78 300 247 247 250 271 287 288 235 271 290 251 273 22 203 167 122 113 143 157 149 114 66 90 275 287 255 288 228 270 274 250 111
299 298 298 305 308 315 301 310 318 323 335 255 293 347 342 299 288 282 258 245 263 278 245 254 278 283 284 117 177 287 166 130 172 172 180 191 215 111 11 46 321 269 215 244 250 100 86
294 291 292 293 300 305 296 288 295 310 341 281 0 325 291 289 295 300 283 229 255 271 288 195 247 263 27 99 118 255 272 173 170 151 187 195 139 101 243 265 264 18 318 337 256 55 133
283 284 285 284 291 295 292 286 276 282 266 306 296 310 273 284 305 301 320 317 305 261 293 264 235 68 67 148 208 326 322 186 173 185 164 188 183 153 200 67 33 303 10 61 73 91 102
281 274 277 276 280 285 287 275 273 274 269 270 286 293 309 296 302 306 338 326 320 298 241 295 4 118 87 86 69 320 328 343 167 188 190 175 188 39 115 89 319 3 342 345 66 145 146
278 265 264 267 269 274 280 272 266 263 261 260 265 272 272 296 251 335 316 314 304 300 147 298 308 348 8 341 137 240 263 236 236 343 289 282 187 123 152 95 83 266 302 330 349 71 169
271 266 252 257 260 267 272 270 261 255 242 231 274 297 314 270 275 296 311 319 320 329 323 287 287 232 308 350 328 168 254 135 93 28 311 346 16 74 28 73 42 263 287 298 56 270 71
260 260 244 244 249 257 264 265 262 253 238 212 271 261 254 284 291 283 290 320 328 354 354 336 341 277 320 311 260 289 27 11 66 33 35 7 357 31 40 102 178 309 9 57 266 24 73
254 253 236 232 238 247 256 255 252 248 231 201 258 254 276 240 283 298 286 278 274 279 330 328 282 277 265 147 319 57 28 47 132 44 327 3 229 148 107 187 233 221 177 117 78 30 39